User: anonymous   Login
Location: Houston
(29.7631°N, 95.3631°W)
Time: 19:23:50
(UTC-05:00)
Language:

BEESAT - Orbit

View from above orbital plane
View from above orbital plane
View from above satellite
View from above satellite

Ground track
Ground track

The orbit data is extracted from the following two-line orbital elements,

1 35933U 09051C   19140.67547301  .00000082  00000-0  29440-4 0  9999
2 35933  98.5880 307.5484 0004585 266.5269  93.5404 14.56366419512662
Epoch (UTC): 20 May 2019 16:12:40
Eccentricity: 0.0004585
inclination: 98.5880°
perigee height: 701 km
apogee height: 708 km
right ascension of ascending node: 307.5484°
argument of perigee: 266.5269°
revolutions per day: 14.56366419
mean anomaly at epoch: 93.5404°
orbit number at epoch: 51266

The dashed part of the orbit path shows where the satellite is in the earth's shadow,  

DLR